Terminal Aerodrome Forecast
Issued by NWS

Home | Current Version | Previous Version | Text Only | Print | Product List | Glossary On
Versions: 1 2 3 4 5 6 7 8 9 10 11 12 13 14 15 16 17 18 19 20 21 22 23 24 25
000
FTUS45 KSLC 191120
TAFBCE
TAF
KBCE 191120Z 1912/2012 27007KT P6SM BKN060 OVC090
     FM191500 27007KT P6SM VCSH BKN060 BKN090
     FM200200 20006KT P6SM SCT090=

USA.gov is the U.S. government's official web portal to all federal, state and local government web resources and services.